> Flugplatz > 
Stacks Image 3
Aktuelle METAR Daten (Memmingen, Friedrichshafen, Laupheim):
2017/02/23 06:50 EDJA 230650Z 23015KT CAVOK 06/01 Q1010
2017/02/23 06:50 EDNY 230650Z 08003KT CAVOK 03/03 Q1012
2017/02/23 06:20 ETHL 230620Z 21007KT 9999 BKN140 SCT260 05/03 Q1010 BLU BLU
Sicherheits- und Servicehinweise:

Bitte achten Sie beim Anflug auf mögliche Fall­schirm­springer auf der Nordseite des Platzes, kontaktieren Sie zur Sicherheit den Flugleiter auf Leutkirch INFO 122,875.

Zollabfertigung:
für Ein- und Ausflug bei Voranmeldung mindestens 3 Stunden, nur Personenverkehr – keine Warenabfertigung.

Günstig Tanken:
Avgas 100 II · Super 95 · Jet A1 · Diesel

Aktuelles:

Winterflugbetrieb vom 01.11.16 – 14.03.17:
Der Flugplatz ist bei Schneefall PPR 2 HR, die Flugleitung ist täglich mindestens von 10:00 bis 15:00 Uhr besetzt.
Am 25.12.16 und 01.01.17 ist der Flugplatz geschlossen.

Weitere Informationen finden Sie in unserem Newsbereich.

Nutzen Sie unsere Online-Anmeldung zur Zoll- und Passkontrolle.